Radiation Dose at Monitoring Post of Fukushima Daini Nuclear Power Station
Date,Time,MP-1(microSv/h),MP-2(microSv/h),MP-3(microSv/h),MP-4(microSv/h),MP-5(microSv/h),MP-6(microSv/h),MP-7(microSv/h),Wind Direction,Wind Velocity(m/s),Rain
2019/10/15,00:00,0.180,0.161,0.269,0.252,0.259,0.138,0.089,north-northwest,6.8,No
2019/10/15,00:10,0.179,0.161,0.268,0.250,0.261,0.138,0.088,north-northwest,7.2,No
2019/10/15,00:20,0.180,0.162,0.269,0.252,0.260,0.137,0.087,north-northwest,6.6,No
2019/10/15,00:30,0.180,0.162,0.267,0.250,0.259,0.136,0.087,north,6.7,No
2019/10/15,00:40,0.178,0.161,0.267,0.252,0.259,0.136,0.086,north-northwest,6.4,No
2019/10/15,00:50,0.179,0.160,0.268,0.249,0.257,0.136,0.086,north-northwest,6.6,No
2019/10/15,01:00,0.178,0.160,0.267,0.250,0.258,0.135,0.086,north-northwest,5.8,No
2019/10/15,01:10,0.179,0.160,0.267,0.249,0.257,0.134,0.084,north-northwest,6.0,No
2019/10/15,01:20,0.178,0.160,0.266,0.249,0.257,0.135,0.084,north-northwest,5.8,No
2019/10/15,01:30,0.178,0.159,0.267,0.250,0.256,0.135,0.084,north-northwest,5.0,No
2019/10/15,01:40,0.177,0.158,0.267,0.249,0.258,0.134,0.084,north-northwest,6.5,No
2019/10/15,01:50,0.179,0.158,0.268,0.250,0.256,0.135,0.085,north-northwest,6.1,No
2019/10/15,02:00,0.178,0.158,0.266,0.249,0.259,0.134,0.085,north-northwest,6.4,No
2019/10/15,02:10,0.179,0.160,0.266,0.250,0.256,0.134,0.084,north-northwest,5.5,No
2019/10/15,02:20,0.177,0.158,0.268,0.250,0.258,0.134,0.085,north-northwest,6.1,No
2019/10/15,02:30,0.178,0.159,0.266,0.252,0.256,0.134,0.084,north-northwest,7.4,No
2019/10/15,02:40,0.178,0.159,0.267,0.249,0.258,0.134,0.084,north,7.3,No
2019/10/15,02:50,0.179,0.158,0.266,0.251,0.256,0.134,0.084,north-northwest,6.5,No
2019/10/15,03:00,0.179,0.159,0.269,0.250,0.257,0.133,0.084,north-northwest,6.8,No
2019/10/15,03:10,0.178,0.158,0.266,0.250,0.256,0.135,0.084,north-northwest,6.3,No
2019/10/15,03:20,0.178,0.158,0.268,0.249,0.258,0.135,0.084,north-northwest,6.5,No
2019/10/15,03:30,0.178,0.159,0.267,0.251,0.256,0.134,0.085,northwest,6.1,No
2019/10/15,03:40,0.180,0.158,0.267,0.249,0.258,0.135,0.085,north-northwest,5.1,No
2019/10/15,03:50,0.178,0.158,0.267,0.251,0.255,0.134,0.085,north-northwest,5.5,No
2019/10/15,04:00,0.180,0.159,0.267,0.250,0.258,0.135,0.084,north-northwest,4.7,No
2019/10/15,04:10,0.178,0.159,0.267,0.250,0.258,0.134,0.084,north-northwest,3.9,No
2019/10/15,04:20,0.179,0.159,0.266,0.251,0.259,0.134,0.084,north,3.7,No
2019/10/15,04:30,0.179,0.158,0.268,0.251,0.256,0.135,0.084,north,4.6,No
2019/10/15,04:40,0.178,0.159,0.267,0.252,0.259,0.134,0.085,north,4.2,No
2019/10/15,04:50,0.178,0.159,0.269,0.250,0.257,0.134,0.084,north-northwest,2.8,No
2019/10/15,05:00,0.179,0.159,0.267,0.253,0.258,0.135,0.085,northwest,3.0,No
2019/10/15,05:10,0.178,0.160,0.269,0.251,0.258,0.135,0.085,northwest,3.8,No
2019/10/15,05:20,0.179,0.158,0.267,0.252,0.258,0.133,0.085,northwest,4.1,No
2019/10/15,05:30,0.179,0.159,0.268,0.251,0.258,0.135,0.085,northwest,3.7,No
2019/10/15,05:40,0.178,0.158,0.267,0.252,0.258,0.134,0.085,northwest,3.4,No
2019/10/15,05:50,0.179,0.159,0.268,0.251,0.258,0.135,0.084,north-northwest,3.6,No
2019/10/15,06:00,0.180,0.159,0.266,0.251,0.258,0.134,0.084,north-northwest,3.3,No
2019/10/15,06:10,0.179,0.159,0.268,0.251,0.256,0.134,0.085,north-northwest,4.6,No
2019/10/15,06:20,0.179,0.158,0.268,0.253,0.258,0.135,0.084,north-northwest,5.1,No
2019/10/15,06:30,0.179,0.159,0.269,0.250,0.257,0.135,0.084,north-northwest,5.3,No
2019/10/15,06:40,0.180,0.159,0.269,0.253,0.258,0.135,0.084,north-northwest,5.8,No
2019/10/15,06:50,0.180,0.158,0.267,0.251,0.259,0.134,0.085,north,5.4,No
2019/10/15,07:00,0.179,0.159,0.268,0.252,0.258,0.135,0.083,north,5.8,No
2019/10/15,07:10,0.179,0.160,0.267,0.251,0.260,0.135,0.084,north,6.1,No
2019/10/15,07:20,0.180,0.159,0.269,0.252,0.257,0.135,0.084,north,5.7,No
2019/10/15,07:30,0.179,0.159,0.268,0.250,0.257,0.135,0.084,north,5.7,No
2019/10/15,07:40,0.178,0.159,0.269,0.251,0.257,0.135,0.084,north,4.4,No
2019/10/15,07:50,0.180,0.158,0.267,0.251,0.259,0.135,0.084,north,3.7,No
2019/10/15,08:00,0.178,0.159,0.269,0.250,0.260,0.134,0.084,north,3.6,No
2019/10/15,08:10,0.178,0.158,0.267,0.250,0.256,0.134,0.084,north,4.1,No
2019/10/15,08:20,0.178,0.159,0.269,0.252,0.258,0.135,0.085,north,3.3,No
2019/10/15,08:30,0.180,0.159,0.268,0.250,0.257,0.136,0.085,north,3.4,No
2019/10/15,08:40,0.179,0.159,0.269,0.253,0.258,0.134,0.084,north,4.7,No
2019/10/15,08:50,0.179,0.159,0.268,0.251,0.256,0.135,0.084,north,4.7,No
2019/10/15,09:00,0.180,0.159,0.269,0.251,0.257,0.134,0.084,north,7.4,No
2019/10/15,09:10,0.178,0.158,0.267,0.253,0.257,0.135,0.084,north,7.8,No
2019/10/15,09:20,0.180,0.159,0.269,0.248,0.257,0.135,0.084,north,8.2,No
2019/10/15,09:30,0.178,0.159,0.268,0.252,0.259,0.134,0.084,north,8.4,No
2019/10/15,09:40,0.179,0.159,0.270,0.252,0.255,0.136,0.084,north,7.0,No
2019/10/15,09:50,0.178,0.160,0.268,0.250,0.257,0.135,0.083,north,6.7,No
2019/10/15,10:00,0.179,0.159,0.269,0.252,0.258,0.134,0.084,north,8.1,No
2019/10/15,10:10,0.180,0.159,0.268,0.251,0.256,0.135,0.084,north,7.1,No
2019/10/15,10:20,0.179,0.159,0.270,0.251,0.260,0.135,0.086,north,7.0,No
2019/10/15,10:30,0.181,0.161,0.268,0.253,0.258,0.135,0.085,north,7.6,No
2019/10/15,10:40,0.179,0.159,0.269,0.251,0.259,0.136,0.084,north,7.8,No
2019/10/15,10:50,0.182,0.159,0.268,0.255,0.258,0.135,0.085,north,7.8,No
2019/10/15,11:00,0.179,0.159,0.271,0.252,0.257,0.136,0.085,north,7.0,No
2019/10/15,11:10,0.181,0.159,0.268,0.254,0.259,0.136,0.084,north,5.9,No
2019/10/15,11:20,0.181,0.160,0.270,0.254,0.257,0.136,0.084,north,6.6,No
2019/10/15,11:30,0.179,0.160,0.268,0.252,0.258,0.136,0.084,north,6.9,No
2019/10/15,11:40,0.181,0.161,0.271,0.254,0.259,0.136,0.085,north,5.9,No
2019/10/15,11:50,0.180,0.160,0.270,0.252,0.256,0.135,0.084,north,5.9,No
2019/10/15,12:00,0.181,0.160,0.270,0.254,0.259,0.136,0.084,north,5.4,No
2019/10/15,12:10,0.181,0.159,0.270,0.253,0.258,0.135,0.084,north,7.2,No
2019/10/15,12:20,0.182,0.160,0.268,0.252,0.257,0.136,0.084,north-northeast,8.5,No
2019/10/15,12:30,0.180,0.159,0.271,0.254,0.260,0.137,0.084,north-northeast,6.1,No
2019/10/15,12:40,0.182,0.161,0.268,0.252,0.257,0.137,0.085,north,7.1,No
2019/10/15,12:50,0.180,0.160,0.271,0.253,0.261,0.137,0.084,north,5.3,No
2019/10/15,13:00,0.181,0.161,0.270,0.252,0.259,0.137,0.085,north,5.7,No
2019/10/15,13:10,0.180,0.160,0.272,0.254,0.260,0.137,0.085,north,6.0,No
2019/10/15,13:20,0.182,0.161,0.269,0.254,0.261,0.137,0.085,north,6.1,No
2019/10/15,13:30,0.182,0.161,0.272,0.251,0.258,0.137,0.085,north,4.9,No
2019/10/15,13:40,0.180,0.160,0.268,0.253,0.255,0.135,0.085,north-northeast,6.5,No
2019/10/15,13:50,0.182,0.160,0.270,0.254,0.258,0.137,0.085,north-northeast,7.6,No
2019/10/15,14:00,0.181,0.160,0.271,0.252,0.260,0.137,0.085,north-northeast,7.4,No
2019/10/15,14:10,0.182,0.161,0.269,0.254,0.257,0.136,0.085,north-northeast,6.7,No
2019/10/15,14:20,0.181,0.161,0.271,0.253,0.260,0.138,0.085,north-northeast,5.7,No
2019/10/15,14:30,0.183,0.161,0.270,0.256,0.259,0.136,0.084,north-northeast,6.4,No
2019/10/15,14:40,0.181,0.160,0.271,0.253,0.261,0.137,0.085,north-northeast,5.5,No
2019/10/15,14:50,0.182,0.160,0.271,0.255,0.260,0.137,0.085,northeast,4.9,No
2019/10/15,15:00,0.182,0.161,0.273,0.254,0.261,0.137,0.084,north-northeast,3.9,No
2019/10/15,15:10,0.182,0.160,0.271,0.254,0.261,0.138,0.086,north,5.3,No
2019/10/15,15:20,0.182,0.161,0.263,0.253,0.259,0.136,0.085,north,4.1,No
2019/10/15,15:30,0.182,0.161,0.269,0.255,0.261,0.138,0.086,north-northeast,4.1,No
2019/10/15,15:40,0.181,0.161,0.271,0.254,0.258,0.136,0.086,north,4.1,No
2019/10/15,15:50,0.181,0.161,0.270,0.254,0.261,0.137,0.085,north,4.3,No
2019/10/15,16:00,0.180,0.161,0.272,0.252,0.258,0.136,0.085,north,5.4,No
2019/10/15,16:10,0.182,0.160,0.270,0.254,0.262,0.137,0.085,north,4.6,No
2019/10/15,16:20,0.180,0.161,0.271,0.254,0.259,0.137,0.085,north-northwest,3.3,No
2019/10/15,16:30,0.181,0.159,0.270,0.255,0.261,0.137,0.085,north-northwest,3.0,No
2019/10/15,16:40,0.181,0.162,0.271,0.253,0.258,0.136,0.085,north,2.8,No
2019/10/15,16:50,0.181,0.160,0.270,0.255,0.261,0.137,0.085,north,3.4,No
2019/10/15,17:00,0.180,0.160,0.270,0.253,0.259,0.137,0.084,north-northwest,4.2,No
2019/10/15,17:10,0.182,0.161,0.273,0.255,0.260,0.137,0.085,north-northwest,4.2,No
2019/10/15,17:20,0.182,0.161,0.271,0.256,0.259,0.138,0.085,north-northwest,5.4,No
2019/10/15,17:30,0.181,0.162,0.272,0.255,0.261,0.138,0.085,north-northwest,5.7,No
2019/10/15,17:40,0.181,0.160,0.271,0.256,0.259,0.137,0.086,north-northwest,7.1,No
2019/10/15,17:50,0.182,0.161,0.272,0.254,0.260,0.138,0.086,north-northwest,6.9,No
2019/10/15,18:00,0.182,0.162,0.272,0.255,0.260,0.137,0.086,north-northwest,6.2,No
2019/10/15,18:10,0.182,0.160,0.271,0.254,0.258,0.137,0.086,northwest,5.9,No
2019/10/15,18:20,0.182,0.162,0.272,0.255,0.261,0.138,0.086,northwest,5.9,No
2019/10/15,18:30,0.182,0.160,0.271,0.254,0.260,0.137,0.086,northwest,6.1,No
2019/10/15,18:40,0.182,0.161,0.273,0.256,0.260,0.138,0.086,northwest,6.1,No
2019/10/15,18:50,0.180,0.161,0.271,0.255,0.258,0.137,0.086,northwest,6.8,No
2019/10/15,19:00,0.182,0.160,0.271,0.254,0.261,0.137,0.086,northwest,7.2,No
2019/10/15,19:10,0.181,0.162,0.272,0.256,0.260,0.138,0.085,north-northwest,7.9,No
2019/10/15,19:20,0.182,0.160,0.272,0.254,0.259,0.137,0.085,north-northwest,8.3,No
2019/10/15,19:30,0.182,0.161,0.272,0.255,0.260,0.137,0.085,north-northwest,8.5,No
2019/10/15,19:40,0.182,0.161,0.272,0.255,0.260,0.137,0.085,northwest,8.1,No
2019/10/15,19:50,0.182,0.161,0.272,0.255,0.262,0.137,0.085,northwest,9.3,No
2019/10/15,20:00,0.182,0.161,0.272,0.255,0.259,0.137,0.085,northwest,9.5,No
2019/10/15,20:10,0.182,0.161,0.272,0.254,0.261,0.136,0.085,northwest,9.2,No
2019/10/15,20:20,0.180,0.161,0.273,0.256,0.259,0.137,0.085,northwest,8.3,No
2019/10/15,20:30,0.181,0.161,0.271,0.255,0.259,0.137,0.085,northwest,8.1,No
2019/10/15,20:40,0.183,0.161,0.272,0.254,0.261,0.137,0.085,northwest,7.6,No
2019/10/15,20:50,0.182,0.161,0.272,0.255,0.259,0.137,0.085,northwest,7.6,No
2019/10/15,21:00,0.183,0.160,0.273,0.254,0.260,0.137,0.085,northwest,7.5,No
2019/10/15,21:10,0.182,0.161,0.272,0.255,0.259,0.136,0.085,northwest,7.2,No
2019/10/15,21:20,0.183,0.161,0.271,0.255,0.259,0.137,0.085,northwest,7.4,No
2019/10/15,21:30,0.183,0.160,0.273,0.254,0.259,0.138,0.085,northwest,7.6,No
2019/10/15,21:40,0.182,0.161,0.272,0.256,0.259,0.137,0.085,northwest,7.4,No
2019/10/15,21:50,0.183,0.160,0.272,0.254,0.261,0.137,0.085,northwest,7.4,No
2019/10/15,22:00,0.181,0.160,0.272,0.256,0.258,0.138,0.086,north-northwest,7.4,No
2019/10/15,22:10,0.182,0.161,0.272,0.256,0.260,0.138,0.085,northwest,7.4,No
2019/10/15,22:20,0.180,0.161,0.272,0.255,0.259,0.137,0.085,north-northwest,7.3,No
2019/10/15,22:30,0.182,0.162,0.272,0.255,0.261,0.138,0.084,northwest,7.7,No
2019/10/15,22:40,0.182,0.161,0.272,0.253,0.260,0.138,0.085,northwest,7.1,No
2019/10/15,22:50,0.182,0.161,0.271,0.255,0.261,0.138,0.086,north-northwest,7.4,No
2019/10/15,23:00,0.183,0.162,0.271,0.254,0.259,0.138,0.085,northwest,6.2,No
2019/10/15,23:10,0.182,0.160,0.273,0.255,0.258,0.138,0.085,northwest,6.3,No
2019/10/15,23:20,0.183,0.162,0.272,0.255,0.260,0.138,0.085,northwest,6.3,No
2019/10/15,23:30,0.182,0.160,0.272,0.255,0.259,0.137,0.085,north-northwest,6.6,No
2019/10/15,23:40,0.182,0.161,0.271,0.255,0.260,0.138,0.085,north-northwest,6.9,No
2019/10/15,23:50,0.182,0.162,0.272,0.255,0.259,0.137,0.086,north-northwest,7.6,No
